[[{"header":{"parameterUnit":"m.s-1","parameterCategory":1,"la1":30.2991,"la2":30.254,"lo1":-89.0895,"lo2":-89.0444,"dy":0.0017,"dx":0.0017,"nx":28,"ny":28,"refTime":"2024-08-12T21:00:00:Z","depth":0,"parameterNumber":2,"parameterNumberName":"U-component_of_WINDS"},"data":[0,0,0,0,0,0,0,0,0,0,0,0,0,0,0,0,0,0,0,0,0,0,0,0,0,0,0,0,0,0,0,0,0,0,0,0,0,0,0,0,0,0,0,0,0,0,0,0,0,0,0,0,0,0,0,0,0,0,1.3303,1.3305,0,1.3445,1.3446,1.3448,1.3498,1.3498,1.3497,1.3497,1.3643,1.3647,1.3651,0,0,0,0,0,0,0,0,0,0,0,0,0,1.3076,1.308,1.3303,1.3305,1.3307,1.3444,1.3446,1.3448,1.3498,1.3498,1.3497,1.3497,1.3641,1.3646,1.3652,0,0,0,0,0,0,0,0,0,0,0,0,0,1.3192,1.3081,1.3303,1.3348,1.3354,1.3444,1.3446,1.3449,1.3499,1.3498,1.3497,1.3496,1.364,1.3646,1.3652,1.3708,0,0,1.3672,1.3675,0,0,0,0,0,0,0,0,1.3185,1.32,1.334,1.3345,1.3352,1.3453,1.342,1.3536,1.3499,1.3444,1.3497,1.3496,1.358,1.3592,1.362,1.3715,1.3721,1.3673,1.3677,1.368,1.3682,0,0,0,0,0,0,0,1.3177,1.3194,1.3359,1.3342,1.3349,1.3361,1.3377,1.3442,1.3515,1.3448,1.3452,1.3468,1.3583,1.3613,1.3624,1.3723,1.3673,1.3679,1.3683,1.3685,1.387,1.3871,0,0,0,0,0,0,1.3161,1.3187,1.3355,1.3363,1.3265,1.3366,1.3384,1.3421,1.3514,1.3527,1.3469,1.347,1.3603,1.3616,1.3629,1.3699,1.368,1.3686,1.369,1.3869,1.387,1.3871,0,0,0,0,0,0,1.3156,1.3176,1.3349,1.3276,1.3299,1.3371,1.3413,1.3424,1.3455,1.3529,1.3543,1.3486,1.3603,1.362,1.3688,1.3705,1.3689,1.3695,1.3868,1.3869,1.387,1.3841,0,0,0,0,0,0,1.3149,1.3174,1.3196,1.3277,1.3303,1.3405,1.3414,1.3428,1.3466,1.3469,1.3549,1.3562,1.3603,1.3678,1.3694,1.3714,1.37,1.3866,1.3868,1.387,1.3841,1.3841,1.3842,0,0,0,0,0,1.3141,1.3182,1.3197,1.3217,1.3332,1.3406,1.3421,1.3468,1.3467,1.3489,1.3537,1.3559,1.37,1.3684,1.3703,1.3725,1.3865,1.3868,1.387,1.384,1.3841,1.3842,0,0,0,0,0,0,1.3102,1.3194,1.3211,1.3279,1.3334,1.3414,1.3445,1.3467,1.3524,1.3525,1.358,1.3598,1.3661,1.37,1.368,1.3783,1.3784,1.379,1.3755,1.3757,1.3757,1.3746,1.3705,0,0,0,0,0,1.3102,1.3154,1.3231,1.3284,1.3311,1.3373,1.3407,1.3438,1.3497,1.3521,1.3574,1.3631,1.3688,1.3725,1.3782,1.3847,1.3864,1.3871,1.3871,1.3871,1.3876,1.3912,1.3916,1.3878,1.3878,1.3878,0,0,1.3101,1.3157,1.3187,1.3278,1.3324,1.3377,1.3392,1.3448,1.3487,1.353,1.3596,1.3637,1.3704,1.377,1.3802,1.3805,1.389,1.3874,1.3874,1.3878,1.3915,1.3918,1.3921,1.388,1.3879,1.3879,0,0,1.3126,1.3175,1.3224,1.3269,1.3339,1.338,1.3391,1.3468,1.3496,1.3564,1.3597,1.3644,1.3742,1.3788,1.3824,1.3865,1.3888,1.3883,1.3885,1.392,1.3922,1.3925,1.3939,1.3943,1.3887,1.3887,1.3887,0,1.3117,1.3198,1.3246,1.3299,1.3338,1.3378,1.3427,1.3469,1.3554,1.3579,1.3581,1.3703,1.3752,1.3828,1.3838,1.3867,1.3881,1.3874,1.3918,1.3921,1.3925,1.3939,1.3944,1.3886,1.3886,1.3886,1.3886,0,1.3182,1.3237,1.3268,1.3348,1.339,1.3441,1.3497,1.3533,1.356,1.36,1.3668,1.3727,1.3796,1.3817,1.3844,1.3897,1.3896,1.3907,1.3909,1.3926,1.394,1.3946,1.3884,1.3884,1.3885,1.3885,0,0,1.3187,1.3292,1.3303,1.3339,1.3418,1.3462,1.3514,1.3581,1.3611,1.3668,1.3713,1.3793,1.3803,1.3844,1.3877,1.3907,1.3935,1.3915,1.3917,1.3916,1.3996,1.3987,1.3992,1.395,1.3951,1.3952,1.399,0,1.3222,1.3318,1.3362,1.3437,1.3488,1.3527,1.3572,1.3625,1.3664,1.3713,1.3756,1.3812,1.3821,1.3846,1.3878,1.3925,1.3951,1.3923,1.3992,1.3994,1.3973,1.3999,1.399,1.4023,1.3996,1.3997,1.3997,0,1.3276,1.3332,1.3412,1.3484,1.3507,1.3547,1.3611,1.3658,1.3719,1.3745,1.3789,1.3821,1.3877,1.3875,1.3952,1.3931,1.3962,1.3989,1.3992,1.4,1.3996,1.4007,1.4035,1.4039,1.4007,1.4006,1.4005,0,1.3271,1.3366,1.3426,1.3456,1.3542,1.3569,1.3606,1.3666,1.3703,1.3759,1.3783,1.3845,1.3879,1.3926,1.3972,1.3967,1.4045,1.4047,1.4068,1.4066,1.4082,1.4081,1.4115,1.4103,1.4103,1.4103,1.4103,0,1.3305,1.3352,1.3425,1.3462,1.3515,1.3566,1.3618,1.3657,1.371,1.3755,1.3792,1.3834,1.3893,1.3942,1.3979,1.4037,1.4052,1.4074,1.4083,1.4071,1.4068,1.4092,1.409,1.4104,1.4104,1.4104,1.4103,0,1.3308,1.3359,1.3426,1.3502,1.3521,1.3558,1.3622,1.3659,1.3699,1.3755,1.3771,1.3834,1.3893,1.3945,1.4023,1.4048,1.4107,1.4119,1.4086,1.4091,1.4108,1.4106,1.4159,1.4168,1.415,1.415,1.415,0,1.3326,1.3364,1.3442,1.3475,1.3511,1.3563,1.3601,1.3651,1.3688,1.376,1.3788,1.3849,1.3901,1.3994,1.4047,1.4107,1.4119,1.4134,1.4129,1.4114,1.4119,1.4116,1.4119,1.4134,1.4134,1.4134,1.4134,0,1.3353,1.3376,1.3428,1.3489,1.3532,1.3583,1.3635,1.3659,1.3719,1.3759,1.382,1.386,1.3939,1.3999,1.4065,1.4103,1.4128,1.4135,1.4142,1.413,1.4109,1.4119,1.4086,1.4133,1.4133,1.4133,1.4133,1.4133,1.3364,1.3398,1.3459,1.3516,1.3559,1.3606,1.3644,1.3688,1.374,1.3808,1.3835,1.3896,1.3955,1.4045,1.4083,1.4132,1.4136,1.4147,1.415,1.4152,1.415,1.4101,1.4144,1.4144,1.4144,1.4144,1.4144,0,1.3392,1.3432,1.3484,1.3554,1.3599,1.3618,1.3676,1.3711,1.3765,1.3818,1.3868,1.3937,1.3995,1.4052,1.4113,1.4141,1.4154,1.4156,1.4154,1.4162,1.4143,1.413,1.4144,1.4144,1.4144,1.4144,1.4144,1.4144,1.3411,1.347,1.35,1.358,1.3621,1.3681,1.3712,1.3755,1.3797,1.3872,1.3921,1.3957,1.4011,1.4077,1.4131,1.4146,1.4167,1.4165,1.4183,1.4164,1.4163,1.4163,1.4151,1.4169,1.4169,1.4198,1.4199,1.4199]},{"header":{"parameterUnit":"m.s-1","parameterCategory":1,"la1":30.2991,"la2":30.254,"lo1":-89.0895,"lo2":-89.0444,"dy":0.0017,"dx":0.0017,"nx":28,"ny":28,"refTime":"2024-08-12T21:00:00:Z","depth":0,"parameterNumber":3,"parameterNumberName":"V-component_of_WINDS"},"data":[0,0,0,0,0,0,0,0,0,0,0,0,0,0,0,0,0,0,0,0,0,0,0,0,0,0,0,0,0,0,0,0,0,0,0,0,0,0,0,0,0,0,0,0,0,0,0,0,0,0,0,0,0,0,0,0,0,0,3.8316,3.8315,0,3.8227,3.8226,3.8225,3.8149,3.8148,3.8147,3.8147,3.8049,3.8047,3.8045,0,0,0,0,0,0,0,0,0,0,0,0,0,3.8417,3.8415,3.8316,3.8315,3.8314,3.8227,3.8226,3.8224,3.8149,3.8148,3.8147,3.8146,3.805,3.8047,3.8045,0,0,0,0,0,0,0,0,0,0,0,0,0,3.8355,3.8415,3.8316,3.8266,3.8261,3.8227,3.8226,3.8224,3.8149,3.8148,3.8147,3.8146,3.805,3.8048,3.8045,3.8052,0,0,3.8036,3.8035,0,0,0,0,0,0,0,0,3.8358,3.8351,3.8275,3.827,3.8263,3.8198,3.8225,3.8166,3.815,3.8191,3.8147,3.8145,3.8099,3.8092,3.8078,3.8048,3.8043,3.8036,3.8035,3.8033,3.8033,0,0,0,0,0,0,0,3.8363,3.8354,3.8281,3.8274,3.8267,3.8246,3.8236,3.8214,3.8153,3.8188,3.8182,3.8173,3.8096,3.8081,3.8075,3.8042,3.8036,3.8034,3.8032,3.8031,3.8012,3.8013,0,0,0,0,0,0,3.8376,3.8359,3.8283,3.8278,3.8309,3.8245,3.8234,3.822,3.8153,3.8142,3.8174,3.817,3.8086,3.8078,3.8071,3.8075,3.8033,3.8031,3.8029,3.8011,3.8013,3.8014,0,0,0,0,0,0,3.8378,3.837,3.8287,3.8317,3.8305,3.8245,3.823,3.8219,3.8204,3.8143,3.8131,3.817,3.8085,3.8075,3.8058,3.8071,3.803,3.8027,3.801,3.8012,3.8013,3.8083,0,0,0,0,0,0,3.8381,3.8371,3.8374,3.8317,3.8303,3.8277,3.8231,3.8218,3.82,3.8194,3.8136,3.8125,3.8083,3.8062,3.8055,3.8066,3.8025,3.8008,3.8011,3.8013,3.8079,3.8087,3.8094,0,0,0,0,0,3.8385,3.8396,3.8375,3.8366,3.8307,3.8278,3.827,3.8223,3.8202,3.8204,3.8164,3.8127,3.8071,3.8061,3.8052,3.8063,3.8007,3.801,3.8012,3.8076,3.8086,3.8094,0,0,0,0,0,0,3.8454,3.8388,3.8363,3.8357,3.8324,3.8265,3.8266,3.8234,3.8205,3.82,3.8141,3.8128,3.8117,3.8088,3.8079,3.8066,3.8034,3.8035,3.8085,3.8094,3.8101,3.8108,3.8023,0,0,0,0,0,3.8469,3.8453,3.8395,3.8395,3.838,3.8327,3.8312,3.8279,3.8241,3.8226,3.8186,3.8149,3.8123,3.8107,3.8079,3.8075,3.8061,3.8078,3.8085,3.8091,3.8092,3.8087,3.8094,3.8022,3.8022,3.8022,0,0,3.8499,3.8461,3.8454,3.8408,3.8379,3.8362,3.8315,3.8299,3.8285,3.8223,3.8205,3.8174,3.8129,3.8118,3.8111,3.8093,3.8109,3.8094,3.81,3.8097,3.8091,3.8097,3.8103,3.8024,3.8024,3.8023,0,0,3.8545,3.8515,3.8511,3.8483,3.844,3.8404,3.8404,3.835,3.8327,3.8309,3.8262,3.8243,3.82,3.817,3.8149,3.8184,3.8148,3.8177,3.8213,3.8209,3.8215,3.822,3.8231,3.8236,3.8178,3.8178,3.8178,0,3.8587,3.8561,3.8513,3.85,3.8481,3.8427,3.8422,3.8396,3.8345,3.8332,3.8314,3.8258,3.8224,3.8205,3.8214,3.8199,3.8195,3.8183,3.8218,3.8222,3.8226,3.8237,3.8241,3.8182,3.8182,3.8181,3.8181,0,3.8615,3.8598,3.86,3.8554,3.8535,3.8527,3.8476,3.8462,3.8431,3.8397,3.8377,3.8335,3.8298,3.8291,3.8259,3.8267,3.8258,3.823,3.8196,3.8237,3.8246,3.825,3.8187,3.8186,3.8185,3.8184,0,0,3.87,3.863,3.8631,3.861,3.8558,3.8543,3.8532,3.8498,3.8486,3.8453,3.8441,3.8406,3.838,3.8356,3.832,3.8317,3.8347,3.8289,3.8287,3.8301,3.8352,3.8374,3.8379,3.8323,3.8324,3.8324,3.8356,0,3.8737,3.8715,3.8672,3.8663,3.8646,3.8594,3.8584,3.855,3.8518,3.8497,3.8461,3.8437,3.8405,3.839,3.8384,3.8345,3.8356,3.8342,3.831,3.8309,3.8322,3.8384,3.8406,3.8438,3.8359,3.836,3.836,0,3.8777,3.875,3.874,3.8689,3.8681,3.8672,3.8637,3.8619,3.8579,3.8556,3.8531,3.8492,3.8475,3.8445,3.842,3.8412,3.8396,3.8374,3.8374,3.8369,3.8337,3.838,3.8447,3.8452,3.8365,3.8365,3.8365,0,3.8841,3.88,3.8789,3.8772,3.8714,3.8709,3.8684,3.8643,3.8626,3.8595,3.8582,3.8549,3.8531,3.8505,3.8458,3.8441,3.8438,3.8404,3.8417,3.8418,3.8418,3.8418,3.8483,3.8409,3.8409,3.8409,3.8409,0,3.8886,3.8882,3.8817,3.881,3.8803,3.8753,3.8747,3.8717,3.8681,3.8666,3.8618,3.8605,3.8544,3.8523,3.8486,3.8471,3.8462,3.8442,3.8432,3.8446,3.8449,3.8434,3.8431,3.841,3.841,3.841,3.8409,0,3.8955,3.8912,3.8896,3.8842,3.8829,3.8826,3.8779,3.877,3.8735,3.8717,3.8709,3.8655,3.8627,3.8578,3.8536,3.8511,3.8503,3.8487,3.8518,3.8511,3.8527,3.8526,3.8584,3.8589,3.8513,3.8513,3.8514,0,3.8986,3.8982,3.8929,3.8917,3.8894,3.8874,3.8857,3.8807,3.879,3.8745,3.874,3.871,3.8683,3.8641,3.8596,3.8564,3.8546,3.8568,3.854,3.8555,3.8545,3.8546,3.8545,3.8575,3.8576,3.8577,3.8577,0,3.9047,3.9026,3.9003,3.8974,3.8954,3.8928,3.8898,3.8891,3.8833,3.8817,3.879,3.8769,3.8727,3.8697,3.8658,3.863,3.8594,3.8587,3.8588,3.8602,3.862,3.861,3.8534,3.8585,3.8585,3.8584,3.8584,3.8583,3.9097,3.9091,3.9053,3.903,3.9003,3.8977,3.8966,3.8931,3.8908,3.8871,3.8843,3.8818,3.8777,3.8722,3.8696,3.8674,3.8657,3.8659,3.8659,3.866,3.8666,3.8624,3.8667,3.8667,3.8666,3.8666,3.8666,0,3.9155,3.9128,3.9107,3.9069,3.905,3.902,3.8986,3.8972,3.8951,3.8918,3.8893,3.8861,3.8832,3.8786,3.8752,3.8744,3.8726,3.8736,3.8736,3.873,3.8683,3.8685,3.8751,3.8751,3.8751,3.8751,3.8751,3.8751,3.9183,3.9171,3.9146,3.912,3.9092,3.9069,3.9052,3.9027,3.9,3.8968,3.8945,3.8915,3.8876,3.8839,3.8811,3.8797,3.8787,3.8803,3.8784,3.8741,3.8733,3.8726,3.8728,3.8801,3.8801,3.8833,3.8833,3.8833]}]]